EW1042 Weather Reports


Display with metric or nautical units.
time (UTC)temp
F
wind
direction
speed
MPH
gust
MPH
rain 1hr
in
rain 24hr
in
rain mn
in
humidity
%
barometer
mb
20260504044540 44 243 5.0 13.0 0.03 0.11 0.11 75 1014.6
20260504043015 44 244 6.0 16.0 0.01 0.09 0.09 76 1014.9
20260504041516 43 236 7.0 12.0 0.01 0.09 0.09 75 1014.9
20260504040105 43 240 6.0 15.0 0.01 0.09 0.09 75 1014.8
20260504034605 43 240 7.0 14.0 0.00 0.08 0.08 75 1014.6
20260504033048 43 233 7.0 12.0 0.00 0.08 0.08 75 1014.3
20260504031537 43 238 6.0 14.0 0.02 0.08 0.08 75 1014.3
20260504030036 42 237 5.0 11.0 0.04 0.08 0.08 75 1014.6
20260504024517 42 232 7.0 12.0 0.06 0.08 0.08 75 1014.7
20260504023116 42 232 8.0 15.0 0.07 0.08 0.08 74 1015.1
20260504021557 42 244 5.0 16.0 0.06 0.06 0.06 73 1015.3
20260504020101 43 234 8.0 14.0 0.04 0.04 0.04 72 1015.3
20260504014547 44 250 10.0 18.0 0.02 0.02 0.02 72 1015.2
20260504013045 45 240 11.0 17.0 0.01 0.01 0.01 73 1015.3
20260504011521 45 226 7.0 13.0 0.00 0.00 0.00 72 1015.1
20260504010022 45 200 3.0 8.0 0.00 0.00 0.00 71 1014.9
20260504004507 46 222 2.0 7.0 0.00 0.00 0.00 67 1014.9
20260504003005 46 216 2.0 5.0 0.00 0.00 0.00 63 1014.8
20260504001544 46 242 5.0 10.0 0.00 0.00 0.00 61 1015.0
20260504000044 46 234 6.0 12.0 0.00 0.00 0.00 60 1015.0
20260503234536 46 254 8.0 13.0 0.00 0.00 0.00 53 1015.0
20260503233024 46 250 8.0 12.0 0.00 0.00 0.00 51 1015.1
20260503231506 46 246 7.0 11.0 0.00 0.00 0.00 49 1015.1
20260503230006 46 240 6.0 12.0 0.00 0.00 0.00 48 1015.1
20260503224547 47 251 5.0 12.0 0.00 0.00 0.00 45 1015.1
20260503223051 47 282 7.0 12.0 0.00 0.00 0.00 46 1015.1
20260503221528 47 261 8.0 20.0 0.00 0.00 0.00 46 1015.2
20260503220029 48 275 6.0 18.0 0.00 0.00 0.00 46 1015.3
20260503214513 48 265 12.0 20.0 0.00 0.00 0.00 44 1015.2
20260503213009 48 305 13.0 23.0 0.00 0.00 0.00 42 1015.2
20260503211549 48 292 10.0 19.0 0.00 0.00 0.00 42 1015.3
20260503210055 48 255 12.0 18.0 0.00 0.00 0.00 47 1015.4
20260503204546 46 230 10.0 18.0 0.00 0.00 0.00 49 1015.6
20260503203032 47 259 15.0 25.0 0.00 0.00 0.00 46 1015.9
20260503201532 47 255 16.0 25.0 0.00 0.00 0.00 46 1015.9
20260503200031 47 315 15.0 22.0 0.00 0.00 0.00 47 1015.9
20260503194532 47 263 15.0 21.0 0.00 0.00 0.00 48 1016.1
20260503193035 47 297 12.0 25.0 0.00 0.00 0.00 50 1016.3
20260503191525 46 311 11.0 20.0 0.00 0.00 0.00 49 1016.4
20260503190027 46 219 11.0 19.0 0.00 0.00 0.00 45 1016.8
20260503184519 46 237 12.0 20.0 0.00 0.00 0.00 43 1016.7
20260503183006 46 242 12.0 22.0 0.00 0.00 0.00 44 1016.8
20260503181506 46 252 14.0 25.0 0.00 0.00 0.00 43 1016.9
20260503180012 45 249 10.0 18.0 0.00 0.00 0.00 46 1016.9
20260503174502 45 278 11.0 20.0 0.00 0.00 0.00 47 1017.0
20260503173001 45 229 9.0 19.0 0.00 0.00 0.00 47 1017.2
20260503171600 45 290 11.0 21.0 0.00 0.00 0.00 49 1017.3
20260503100106 35 233 0.0 0.0 0.00 0.01 0.01 73 1017.9
20260503081545 36 238 0.0 0.0 0.00 0.01 0.01 73 1018.4
20260503071532 36 227 0.0 0.0 0.00 0.01 0.01 73 1018.2
20260503054509 36 243 0.0 0.0 0.00 0.01 0.01 74 1018.6
20260503053007 36 250 0.0 0.0 0.00 0.01 0.01 74 1018.7
20260503051552 37 251 0.0 0.0 0.00 0.01 0.01 74 1018.8
20260503050049 37 251 0.0 0.0 0.00 0.01 0.01 73 1018.9